TimeCST,TemperatureF,Dew PointF,Humidity,Sea Level PressureIn,VisibilityMPH,Wind Direction,Wind SpeedMPH,Gust SpeedMPH,PrecipitationIn,Events,Conditions,WindDirDegrees,DateUTC
12:15 AM,41.9,32.0,68,30.09,10.0,Calm,Calm,-,N/A,,Clear,0,2013-02-07 06:15:00
12:35 AM,41.9,32.0,68,30.09,10.0,Calm,Calm,-,N/A,,Clear,0,2013-02-07 06:35:00
12:55 AM,41.9,32.0,68,30.09,10.0,Calm,Calm,-,N/A,,Clear,0,2013-02-07 06:55:00
1:15 AM,42.1,32.0,67,30.08,10.0,ESE,3.5,-,N/A,,Clear,110,2013-02-07 07:15:00
1:35 AM,41.9,32.0,68,30.08,10.0,Calm,Calm,-,N/A,,Clear,0,2013-02-07 07:35:00
1:55 AM,41.7,32.0,68,30.08,10.0,ESE,3.5,-,N/A,,Clear,110,2013-02-07 07:55:00
2:15 AM,41.0,32.0,70,30.08,10.0,ENE,3.5,-,N/A,,Clear,60,2013-02-07 08:15:00
2:35 AM,41.0,32.0,70,30.07,10.0,East,3.5,-,N/A,,Clear,80,2013-02-07 08:35:00
2:55 AM,40.3,32.0,72,30.06,10.0,East,4.6,-,N/A,,Clear,80,2013-02-07 08:55:00
3:15 AM,40.5,32.0,72,30.06,10.0,Calm,Calm,-,N/A,,Clear,0,2013-02-07 09:15:00
3:35 AM,39.6,31.8,74,30.05,10.0,East,4.6,-,N/A,,Clear,90,2013-02-07 09:35:00
3:55 AM,39.6,31.5,73,30.04,10.0,East,3.5,-,N/A,,Clear,90,2013-02-07 09:55:00
4:15 AM,39.4,31.5,73,30.04,10.0,East,3.5,-,N/A,,Clear,80,2013-02-07 10:15:00
4:35 AM,38.7,31.1,74,30.03,10.0,East,3.5,-,N/A,,Clear,80,2013-02-07 10:35:00
4:55 AM,38.1,30.9,75,30.03,10.0,ESE,3.5,-,N/A,,Clear,110,2013-02-07 10:55:00
5:15 AM,38.5,31.1,75,30.03,10.0,Calm,Calm,-,N/A,,Clear,0,2013-02-07 11:15:00
5:55 AM,39.0,31.1,73,30.03,10.0,ESE,4.6,-,N/A,,Clear,110,2013-02-07 11:55:00
6:15 AM,39.4,31.5,73,30.01,10.0,East,4.6,-,N/A,,Clear,100,2013-02-07 12:15:00
6:35 AM,38.5,31.1,75,30.01,10.0,East,3.5,-,N/A,,Clear,100,2013-02-07 12:35:00
6:55 AM,37.4,30.9,77,30.01,10.0,East,3.5,-,N/A,,Clear,90,2013-02-07 12:55:00
7:15 AM,36.1,30.9,81,30.00,10.0,Calm,Calm,-,N/A,,Clear,0,2013-02-07 13:15:00
7:35 AM,40.3,32.0,72,30.00,10.0,ESE,4.6,-,N/A,,Clear,110,2013-02-07 13:35:00
7:55 AM,42.1,32.2,68,30.01,10.0,ESE,3.5,-,N/A,,Clear,120,2013-02-07 13:55:00
8:15 AM,45.0,33.1,63,30.01,10.0,ESE,4.6,-,N/A,,Clear,110,2013-02-07 14:15:00
8:35 AM,46.6,32.9,59,30.01,10.0,SE,5.8,-,N/A,,Clear,130,2013-02-07 14:35:00
8:55 AM,48.6,33.8,57,30.01,10.0,ESE,4.6,-,N/A,,Clear,110,2013-02-07 14:55:00
9:15 AM,50.7,34.5,54,30.00,10.0,SE,4.6,-,N/A,,Clear,140,2013-02-07 15:15:00
9:35 AM,53.1,35.4,51,30.00,10.0,SE,4.6,-,N/A,,Clear,140,2013-02-07 15:35:00
10:15 AM,57.9,39.6,50,29.98,10.0,SSE,4.6,-,N/A,,Clear,160,2013-02-07 16:15:00
10:35 AM,59.9,42.6,53,29.98,10.0,SSE,6.9,-,N/A,,Clear,150,2013-02-07 16:35:00
10:55 AM,61.9,43.7,51,29.97,10.0,South,4.6,-,N/A,,Clear,180,2013-02-07 16:55:00
11:15 AM,62.8,46.0,54,29.96,10.0,South,9.2,-,N/A,,Clear,190,2013-02-07 17:15:00
11:35 AM,64.2,47.1,54,29.95,10.0,South,9.2,-,N/A,,Clear,180,2013-02-07 17:35:00
11:55 AM,64.4,48.2,56,29.95,10.0,SSW,11.5,-,N/A,,Scattered Clouds,210,2013-02-07 17:55:00
12:15 PM,64.2,48.2,56,29.94,10.0,SSW,10.4,16.1,N/A,,Mostly Cloudy,200,2013-02-07 18:15:00
12:35 PM,65.1,48.7,55,29.93,10.0,SW,8.1,-,N/A,,Mostly Cloudy,220,2013-02-07 18:35:00
12:55 PM,64.8,48.6,56,29.91,10.0,SSW,11.5,-,N/A,,Scattered Clouds,210,2013-02-07 18:55:00
1:15 PM,65.5,49.3,56,29.91,10.0,SSW,10.4,-,N/A,,Scattered Clouds,210,2013-02-07 19:15:00
1:35 PM,63.7,49.3,59,29.91,10.0,SSW,9.2,-,N/A,,Mostly Cloudy,210,2013-02-07 19:35:00
1:55 PM,62.8,50.5,64,29.91,10.0,WSW,12.7,16.1,N/A,,Overcast,250,2013-02-07 19:55:00
2:15 PM,61.5,51.4,69,29.90,10.0,WSW,9.2,19.6,N/A,,Mostly Cloudy,240,2013-02-07 20:15:00
2:35 PM,61.3,50.9,69,29.89,10.0,WSW,5.8,-,N/A,,Scattered Clouds,240,2013-02-07 20:35:00
2:55 PM,61.0,50.7,69,29.88,10.0,WSW,5.8,-,N/A,,Clear,240,2013-02-07 20:55:00
3:15 PM,61.7,50.9,68,29.87,10.0,SSW,4.6,-,N/A,,Clear,200,2013-02-07 21:15:00
3:35 PM,61.9,50.9,67,29.87,10.0,WSW,3.5,-,N/A,,Scattered Clouds,240,2013-02-07 21:35:00
3:55 PM,62.1,50.9,67,29.86,10.0,SSW,4.6,-,N/A,,Scattered Clouds,210,2013-02-07 21:55:00
4:15 PM,61.7,50.5,67,29.86,10.0,Calm,Calm,-,N/A,,Scattered Clouds,0,2013-02-07 22:15:00
4:35 PM,60.8,50.5,69,29.87,10.0,SW,3.5,-,N/A,,Scattered Clouds,230,2013-02-07 22:35:00
4:55 PM,60.6,50.4,69,29.87,10.0,West,4.6,-,N/A,,Mostly Cloudy,260,2013-02-07 22:55:00
5:15 PM,60.1,50.4,70,29.87,10.0,Calm,Calm,-,N/A,,Overcast,0,2013-02-07 23:15:00
5:35 PM,59.4,50.4,72,29.87,10.0,Calm,Calm,-,N/A,,Overcast,0,2013-02-07 23:35:00
5:55 PM,59.2,50.2,72,29.87,10.0,Calm,Calm,-,N/A,,Overcast,0,2013-02-07 23:55:00
6:15 PM,58.3,50.2,74,29.87,10.0,Calm,Calm,-,N/A,,Overcast,0,2013-02-08 00:15:00
6:35 PM,57.7,50.2,76,29.87,10.0,Calm,Calm,-,N/A,,Overcast,0,2013-02-08 00:35:00
6:55 PM,58.1,50.2,75,29.87,10.0,SW,3.5,-,N/A,,Overcast,220,2013-02-08 00:55:00
7:15 PM,59.0,50.7,74,29.87,10.0,SSW,4.6,-,N/A,,Overcast,210,2013-02-08 01:15:00
7:35 PM,59.0,50.9,74,29.86,10.0,SW,5.8,-,N/A,,Overcast,220,2013-02-08 01:35:00
7:55 PM,59.0,51.3,75,29.86,10.0,SW,6.9,-,N/A,,Overcast,220,2013-02-08 01:55:00
8:15 PM,58.1,51.8,80,29.87,10.0,West,3.5,-,N/A,Rain,Light Rain,270,2013-02-08 02:15:00
8:35 PM,56.3,53.4,90,29.87,7.0,West,4.6,-,0.01,Rain,Rain,260,2013-02-08 02:35:00
8:55 PM,55.6,55.4,99,29.87,5.0,West,4.6,-,0.02,Rain,Rain,260,2013-02-08 02:55:00
9:15 PM,55.4,55.4,100,29.88,3.0,West,6.9,-,0.10,Rain,Heavy Rain,270,2013-02-08 03:15:00
9:35 PM,55.4,55.4,100,29.88,3.0,WNW,9.2,-,0.23,Rain,Rain,300,2013-02-08 03:35:00
9:55 PM,54.7,54.5,99,29.89,7.0,NNW,17.3,25.3,0.25,Rain,Rain,330,2013-02-08 03:55:00
10:15 PM,52.0,51.3,97,29.89,10.0,NNW,8.1,-,N/A,,Overcast,330,2013-02-08 04:15:00
10:35 PM,51.3,50.4,97,29.90,10.0,NNW,12.7,-,N/A,Rain,Rain,340,2013-02-08 04:35:00
10:55 PM,50.5,49.5,96,29.91,10.0,NNW,10.4,18.4,0.01,Rain,Light Rain,330,2013-02-08 04:55:00
11:15 PM,50.0,49.1,97,29.92,10.0,NNW,10.4,17.3,N/A,,Light Drizzle,330,2013-02-08 05:15:00
11:35 PM,49.8,49.1,97,29.93,10.0,NNW,11.5,-,N/A,,Overcast,340,2013-02-08 05:35:00
11:55 PM,49.1,47.5,94,29.94,10.0,NNW,11.5,21.9,N/A,,Overcast,340,2013-02-08 05:55:00